Washington, NE

9:56 PM CST on February 12, 2016 (GMT -0600)
Blair Municipal

Weather History for KBTA - November, 2012

Change the Weather History Date:

Monday, November 26, 2012

  Actual Average (KOMA) Record (KOMA)
Temperature  
Mean Temperature 26 °F 33 °F  
Max Temperature 35 °F 43 °F 67 °F (1914)
Min Temperature 16 °F 24 °F 1 °F (1898)
Degree Days  
Heating Degree Days 40 32  
Month to date heating degree days 653  
Since 1 July heating degree days 1138  
Cooling Degree Days 0 0  
Month to date cooling degree days 0  
Year to date cooling degree days 1112  
Moisture  
Dew Point 19 °F    
Average Humidity 69    
Maximum Humidity 83    
Minimum Humidity 54    
Precipitation  
Precipitation 0.00 in 0.05 in 1.59 in (1896)
Month to date precipitation 1.46  
Year to date precipitation 29.40  
Snow  
Snow 0.00 in 0.20 in - ()
Month to date snowfall 1.9  
Since 1 July snowfall 2.2  
Snow Depth -    
Sea Level Pressure  
Sea Level Pressure 30.33 in    
Wind  
Wind Speed 10 mph (North)    
Max Wind Speed 20 mph    
Max Gust Speed 24 mph    
Visibility 9 miles    
Events Snow    
T = Trace of Precipitation, MM = Missing Value Source: NWS Daily Summary

Daily Weather History Graph

Daily Weather History Graph

Search for Another Location

Airport or City:

Trip Planner

Search our weather history database for the weather conditions in past years. The results will help you decide how hot, cold, wet, or windy it might be!

Date:

Astronomy

Nov. 26, 2012 Rise Set
Actual Time 7:26 AM CST 4:57 PM CST
Civil Twilight 6:55 AM CST 5:27 PM CST
Nautical Twilight 6:21 AM CST 6:01 PM CST
Astronomical Twilight 5:48 AM CST 6:35 PM CST
Moon 3:50 PM CST (11/26) 5:36 AM CST (11/26)
Length of Visible Light 10h 32m
Length of Day
9h 30m
Waxing Gibbous, 97% of the Moon is Illuminated
Nov 26
Waxing Gibbous
Nov 28
Full
Dec 6
Last Quarter
Dec 13
New
Dec 19
First Quarter

Hourly Weather History & Observations

Time (CST) Temp. Windchill Dew Point Humidity Pressure Visibility Wind Dir Wind Speed Gust Speed Precip Events Conditions
12:15 AM 35.8 °F 26.9 °F 26.2 °F 68% 30.14 in 10.0 mi North 13.8 mph - N/A   Overcast
12:35 AM 35.6 °F 27.5 °F 25.9 °F 68% 30.15 in 10.0 mi North 11.5 mph - N/A   Overcast
12:55 AM 35.6 °F 27.1 °F 25.7 °F 67% 30.15 in 10.0 mi North 12.7 mph - N/A   Overcast
1:15 AM 35.2 °F 27.6 °F 25.3 °F 67% 30.14 in 10.0 mi North 10.4 mph - N/A   Mostly Cloudy
1:35 AM 35.2 °F 27.1 °F 25.3 °F 67% 30.15 in 10.0 mi North 11.5 mph - N/A   Mostly Cloudy
1:55 AM 34.9 °F 27.1 °F 25.5 °F 69% 30.16 in 10.0 mi North 10.4 mph - N/A   Overcast
2:15 AM 34.7 °F 26.9 °F 25.3 °F 69% 30.15 in 10.0 mi North 10.4 mph - N/A   Overcast
2:35 AM 34.7 °F 26.4 °F 25.3 °F 69% 30.16 in 10.0 mi NNE 11.5 mph - N/A   Overcast
2:55 AM 34.3 °F 26.5 °F 25.5 °F 70% 30.16 in 10.0 mi NNE 10.4 mph - N/A   Overcast
3:15 AM 34.3 °F 25.9 °F 25.2 °F 69% 30.16 in 10.0 mi NNE 11.5 mph - N/A   Overcast
3:35 AM 34.3 °F 25.5 °F 24.8 °F 68% 30.17 in 10.0 mi NNE 12.7 mph - N/A   Overcast
3:55 AM 34.0 °F 25.0 °F 24.1 °F 67% 30.18 in 10.0 mi NNE 12.7 mph - N/A   Overcast
4:15 AM 33.8 °F 25.3 °F 23.9 °F 67% 30.18 in 10.0 mi NNE 11.5 mph 16.1 mph N/A   Overcast
4:35 AM 33.8 °F 25.8 °F 23.7 °F 67% 30.19 in 10.0 mi NNE 10.4 mph 18.4 mph N/A   Overcast
4:55 AM 33.4 °F 25.9 °F 23.7 °F 68% 30.20 in 10.0 mi NNE 9.2 mph - N/A   Overcast
5:15 AM 33.4 °F 26.6 °F 23.7 °F 68% 30.20 in 10.0 mi NNE 8.1 mph - N/A   Overcast
5:35 AM 33.3 °F 25.7 °F 23.5 °F 68% 30.21 in 10.0 mi NNE 9.2 mph - N/A   Overcast
5:55 AM 33.3 °F 25.7 °F 23.5 °F 68% 30.23 in 10.0 mi North 9.2 mph - N/A   Overcast
6:15 AM 32.9 °F 24.7 °F 23.9 °F 69% 30.24 in 10.0 mi North 10.4 mph - N/A   Overcast
6:35 AM 32.9 °F 24.7 °F 23.7 °F 69% 30.25 in 10.0 mi North 10.4 mph - N/A   Overcast
6:55 AM 32.5 °F 24.2 °F 23.9 °F 70% 30.26 in 10.0 mi North 10.4 mph - N/A   Overcast
7:15 AM 32.0 °F 23.0 °F 24.6 °F 74% 30.26 in 10.0 mi North 11.5 mph - N/A Snow Light Snow
7:35 AM 31.8 °F 23.9 °F 25.7 °F 78% 30.28 in 5.0 mi North 9.2 mph - N/A Snow Light Snow
7:55 AM 32.0 °F 23.0 °F 25.2 °F 76% 30.31 in 10.0 mi NNW 11.5 mph - N/A   Overcast
8:15 AM 31.5 °F 22.9 °F 25.3 °F 78% 30.31 in 3.0 mi North 10.4 mph - N/A Snow Light Snow
8:35 AM 31.1 °F 22.4 °F 25.7 °F 80% 30.33 in 5.0 mi North 10.4 mph - N/A Snow Light Snow
8:55 AM 31.1 °F 21.9 °F 24.8 °F 77% 30.34 in 5.0 mi North 11.5 mph 16.1 mph N/A Snow Light Snow
9:15 AM 30.6 °F 22.4 °F 24.4 °F 78% 30.35 in 4.0 mi North 9.2 mph - N/A Snow Light Snow
9:35 AM 30.9 °F 21.2 °F 24.8 °F 78% 30.37 in 5.0 mi North 12.7 mph - N/A Snow Light Snow
9:55 AM 30.0 °F 21.7 °F 25.2 °F 82% 30.37 in 2.5 mi North 9.2 mph - N/A Snow Light Snow
10:15 AM 29.5 °F 19.9 °F 23.9 °F 80% 30.38 in 5.0 mi North 11.5 mph - N/A Snow Light Snow
10:35 AM 29.1 °F 18.9 °F 22.1 °F 75% 30.39 in 10.0 mi North 12.7 mph - N/A Snow Light Snow
10:55 AM 27.7 °F 14.8 °F 22.1 °F 80% 30.40 in 7.0 mi NNW 18.4 mph 21.9 mph N/A Snow Light Snow
11:15 AM 28.6 °F 16.4 °F 19.8 °F 70% 30.41 in 10.0 mi NNW 17.3 mph 24.2 mph N/A   Mostly Cloudy
11:35 AM 28.4 °F 15.4 °F 18.5 °F 66% 30.41 in 10.0 mi NNW 19.6 mph - N/A   Mostly Cloudy
11:55 AM 27.5 °F 15.9 °F 17.4 °F 66% 30.41 in 10.0 mi North 15.0 mph - N/A   Scattered Clouds
12:15 PM 28.4 °F 16.2 °F 18.1 °F 65% 30.40 in 10.0 mi North 17.3 mph 21.9 mph N/A   Clear
12:35 PM 28.4 °F 17.0 °F 17.8 °F 64% 30.40 in 10.0 mi NNW 15.0 mph 21.9 mph N/A   Clear
12:55 PM 27.9 °F 16.8 °F 16.9 °F 63% 30.40 in 10.0 mi North 13.8 mph - N/A   Clear
1:15 PM 28.4 °F 18.5 °F 16.5 °F 61% 30.40 in 10.0 mi North 11.5 mph - N/A   Clear
1:35 PM 28.9 °F 17.7 °F 15.8 °F 58% 30.40 in 10.0 mi NNW 15.0 mph 18.4 mph N/A   Clear
1:55 PM 29.5 °F 18.8 °F 15.6 °F 56% 30.39 in 10.0 mi NNW 13.8 mph - N/A   Clear
2:15 PM 30.2 °F 19.8 °F 15.6 °F 55% 30.39 in 10.0 mi NNW 13.8 mph - N/A   Clear
2:35 PM 30.2 °F 20.2 °F 15.3 °F 54% 30.39 in 10.0 mi North 12.7 mph 17.3 mph N/A   Clear
2:55 PM 30.0 °F 19.1 °F 15.4 °F 55% 30.39 in 10.0 mi North 15.0 mph - N/A   Clear
3:15 PM 30.4 °F 20.5 °F 15.6 °F 54% 30.39 in 10.0 mi NNW 12.7 mph 16.1 mph N/A   Clear
3:35 PM 30.2 °F 20.8 °F 15.4 °F 54% 30.39 in 10.0 mi North 11.5 mph - N/A   Clear
3:55 PM 29.8 °F 21.5 °F 15.4 °F 55% 30.39 in 10.0 mi NNW 9.2 mph - N/A   Clear
4:15 PM 29.3 °F 20.8 °F 15.6 °F 57% 30.39 in 10.0 mi North 9.2 mph - N/A   Clear
4:35 PM 28.4 °F 21.2 °F 15.4 °F 58% 30.39 in 10.0 mi North 6.9 mph - N/A   Clear
4:55 PM 27.3 °F 20.9 °F 15.4 °F 61% 30.40 in 10.0 mi North 5.8 mph - N/A   Clear
5:15 PM 25.9 °F 19.2 °F 14.9 °F 63% 30.40 in 10.0 mi North 5.8 mph - N/A   Clear
5:35 PM 25.2 °F 18.3 °F 14.7 °F 65% 30.40 in 10.0 mi North 5.8 mph - N/A   Clear
5:55 PM 25.2 °F 19.5 °F 14.7 °F 65% 30.41 in 10.0 mi NNE 4.6 mph - N/A   Clear
6:15 PM 24.6 °F 20.3 °F 14.5 °F 66% 30.42 in 10.0 mi NNE 3.5 mph - N/A   Clear
6:35 PM 24.4 °F 20.1 °F 14.4 °F 66% 30.42 in 10.0 mi North 3.5 mph - N/A   Clear
6:55 PM 23.9 °F 18.0 °F 14.2 °F 66% 30.43 in 10.0 mi North 4.6 mph - N/A   Clear
7:15 PM 23.5 °F 19.1 °F 14.0 °F 67% 30.42 in 10.0 mi North 3.5 mph - N/A   Clear
7:35 PM 20.8 °F 16.0 °F 13.1 °F 72% 30.42 in 10.0 mi NNW 3.5 mph - N/A   Clear
7:55 PM 20.5 °F 15.6 °F 13.1 °F 73% 30.42 in 10.0 mi NNW 3.5 mph - N/A   Clear
8:15 PM 21.9 °F - 14.2 °F 72% 30.42 in 10.0 mi Calm Calm - N/A   Clear
8:35 PM 21.7 °F 17.0 °F 14.5 °F 74% 30.42 in 10.0 mi NNE 3.5 mph - N/A   Clear
8:55 PM 19.4 °F - 12.4 °F 74% 30.42 in 10.0 mi Calm Calm - N/A   Clear
9:15 PM 20.1 °F - 13.8 °F 77% 30.42 in 10.0 mi Calm Calm - N/A   Clear
9:35 PM 20.3 °F - 13.6 °F 75% 30.42 in 10.0 mi Calm Calm - N/A   Clear
9:55 PM 18.5 °F - 13.3 °F 80% 30.42 in 10.0 mi Calm Calm - N/A   Clear
10:15 PM 18.1 °F - 13.3 °F 81% 30.42 in 10.0 mi Calm Calm - N/A   Clear
10:55 PM 16.7 °F - 12.4 °F 83% 30.42 in 10.0 mi Calm Calm - N/A   Clear
11:15 PM 17.4 °F 12.1 °F 12.4 °F 81% 30.42 in 10.0 mi South 3.5 mph - N/A   Clear
11:35 PM 17.6 °F 12.3 °F 13.1 °F 83% 30.41 in 10.0 mi South 3.5 mph - N/A   Clear
11:55 PM 17.6 °F 12.3 °F 12.9 °F 82% 30.41 in 10.0 mi SSW 3.5 mph - N/A   Clear